| time (UTC) | temp F | wind direction | speed knots | gust knots | rain 1hr in | rain 24hr in | rain mn in | humidity % | barometer mb |
| 20260506201515 | 64 | 283 | 1.7 | 7.0 | 0.00 | 0.14 | 0.14 | 87 | 1007.7 |
| 20260506200014 | 64 | 264 | 3.5 | 7.8 | 0.00 | 0.14 | 0.14 | 87 | 1007.8 |
| 20260506194514 | 64 | 282 | 2.6 | 11.3 | 0.00 | 0.14 | 0.14 | 87 | 1007.9 |
| 20260506193016 | 63 | 260 | 1.7 | 7.0 | 0.00 | 0.14 | 0.14 | 88 | 1008.1 |
| 20260506191511 | 63 | 240 | 0.9 | 7.0 | 0.00 | 0.14 | 0.14 | 89 | 1008.3 |
| 20260506190009 | 63 | 265 | 1.7 | 8.7 | 0.00 | 0.14 | 0.14 | 89 | 1008.3 |
| 20260506184507 | 62 | 253 | 2.6 | 7.8 | 0.00 | 0.14 | 0.14 | 89 | 1008.5 |
| 20260506183006 | 62 | 267 | 2.6 | 7.0 | 0.00 | 0.14 | 0.14 | 91 | 1008.6 |
| 20260506181506 | 62 | 241 | 2.6 | 5.2 | 0.00 | 0.14 | 0.14 | 90 | 1008.8 |
| 20260506180106 | 62 | 271 | 3.5 | 6.1 | 0.00 | 0.14 | 0.14 | 90 | 1008.7 |
| 20260506174503 | 62 | 285 | 2.6 | 11.3 | 0.01 | 0.14 | 0.14 | 91 | 1008.8 |
| 20260506173003 | 62 | 244 | 0.9 | 4.3 | 0.01 | 0.14 | 0.14 | 92 | 1008.7 |
| 20260506171505 | 62 | 242 | 2.6 | 7.8 | 0.01 | 0.14 | 0.14 | 92 | 1009.2 |
| 20260506170001 | 62 | 246 | 1.7 | 6.1 | 0.03 | 0.14 | 0.14 | 92 | 1009.0 |
| 20260506164600 | 62 | 246 | 1.7 | 4.3 | 0.06 | 0.13 | 0.13 | 93 | 1008.9 |
| 20260506164501 | 62 | 245 | 1.7 | 4.3 | 0.06 | 0.13 | 0.13 | 93 | 1008.9 |
| 20260506163104 | 61 | 254 | 0.9 | 3.5 | 0.08 | 0.13 | 0.13 | 94 | 1009.1 |
| 20260506161604 | 61 | 180 | 0.9 | 3.5 | 0.11 | 0.13 | 0.13 | 93 | 1009.4 |
| 20260506160056 | 61 | 226 | 1.7 | 6.1 | 0.10 | 0.11 | 0.11 | 92 | 1010.1 |
| 20260506154556 | 61 | 248 | 1.7 | 3.5 | 0.07 | 0.07 | 0.07 | 91 | 1010.3 |
| 20260506153051 | 62 | 244 | 0.9 | 4.3 | 0.04 | 0.04 | 0.04 | 89 | 1010.3 |
| 20260506151602 | 63 | 268 | 1.7 | 4.3 | 0.02 | 0.02 | 0.02 | 87 | 1010.3 |
| 20260506150046 | 64 | 256 | 0.9 | 3.5 | 0.01 | 0.01 | 0.01 | 86 | 1010.2 |
| 20260506144544 | 64 | 251 | 0.9 | 5.2 | 0.00 | 0.00 | 0.00 | 83 | 1010.0 |
| 20260506143048 | 65 | 240 | 3.5 | 7.0 | 0.00 | 0.00 | 0.00 | 78 | 1010.2 |
| 20260506141543 | 66 | 294 | 3.5 | 7.8 | 0.00 | 0.00 | 0.00 | 75 | 1010.3 |
| 20260506140043 | 67 | 252 | 1.7 | 7.8 | 0.00 | 0.00 | 0.00 | 75 | 1010.0 |
| 20260506134544 | 67 | 250 | 2.6 | 8.7 | 0.00 | 0.00 | 0.00 | 76 | 1009.9 |
| 20260506133043 | 66 | 267 | 1.7 | 7.0 | 0.00 | 0.00 | 0.00 | 77 | 1010.1 |
| 20260506131541 | 66 | 250 | 1.7 | 10.4 | 0.00 | 0.00 | 0.00 | 76 | 1010.2 |
| 20260506130044 | 66 | 270 | 2.6 | 10.4 | 0.00 | 0.00 | 0.00 | 76 | 1010.4 |
| 20260506124540 | 66 | 222 | 2.6 | 7.0 | 0.00 | 0.00 | 0.00 | 77 | 1010.2 |
| 20260506123040 | 65 | 243 | 1.7 | 7.0 | 0.00 | 0.00 | 0.00 | 78 | 1010.2 |
| 20260506121541 | 65 | 244 | 2.6 | 7.0 | 0.00 | 0.00 | 0.00 | 79 | 1010.0 |
| 20260506120042 | 64 | 244 | 0.9 | 3.5 | 0.00 | 0.00 | 0.00 | 79 | 1010.1 |
| 20260506114542 | 64 | 223 | 1.7 | 4.3 | 0.00 | 0.00 | 0.00 | 80 | 1010.1 |
| 20260506113038 | 64 | 217 | 1.7 | 4.3 | 0.00 | 0.00 | 0.00 | 80 | 1010.0 |
| 20260506111539 | 64 | 250 | 0.9 | 3.5 | 0.00 | 0.00 | 0.00 | 80 | 1010.1 |
| 20260506110044 | 64 | 248 | 1.7 | 4.3 | 0.00 | 0.00 | 0.00 | 80 | 1010.0 |
| 20260506104536 | 64 | 252 | 0.9 | 4.3 | 0.00 | 0.00 | 0.00 | 80 | 1010.0 |
| 20260506103036 | 64 | 245 | 0.9 | 6.1 | 0.00 | 0.00 | 0.00 | 80 | 1009.8 |
| 20260506101549 | 64 | 211 | 1.7 | 4.3 | 0.00 | 0.00 | 0.00 | 81 | 1009.8 |
| 20260506100035 | 64 | 252 | 0.9 | 4.3 | 0.00 | 0.00 | 0.00 | 80 | 1009.9 |
| 20260506094540 | 64 | 223 | 0.9 | 4.3 | 0.00 | 0.00 | 0.00 | 80 | 1009.8 |
| 20260506093034 | 65 | 227 | 0.9 | 2.6 | 0.00 | 0.00 | 0.00 | 79 | 1009.8 |
| 20260506091533 | 65 | 197 | 0.9 | 4.3 | 0.00 | 0.00 | 0.00 | 79 | 1009.7 |
| 20260506090035 | 65 | 193 | 0.9 | 6.1 | 0.00 | 0.00 | 0.00 | 79 | 1009.8 |
| 20260506084532 | 64 | 150 | 0.9 | 3.5 | 0.00 | 0.00 | 0.00 | 81 | 1009.8 |
| 20260506083029 | 64 | 207 | 0.0 | 2.6 | 0.00 | 0.00 | 0.00 | 80 | 1010.0 |
| 20260506081527 | 64 | 207 | 0.0 | 1.7 | 0.00 | 0.00 | 0.00 | 79 | 1010.0 |
| 20260506073024 | 65 | 201 | 0.0 | 1.7 | 0.00 | 0.00 | 0.00 | 79 | 1010.1 |
| 20260506071520 | 66 | 201 | 0.0 | 1.7 | 0.00 | 0.00 | 0.00 | 77 | 1010.3 |
| 20260506061514 | 67 | 248 | 1.7 | 4.3 | 0.00 | 0.00 | 0.00 | 73 | 1010.6 |
| 20260506044509 | 68 | 279 | 1.7 | 6.1 | 0.00 | 0.00 | 0.00 | 69 | 1011.0 |
| 20260506043005 | 68 | 253 | 0.9 | 3.5 | 0.00 | 0.00 | 0.00 | 69 | 1011.0 |
| 20260506041609 | 68 | 244 | 0.9 | 4.3 | 0.00 | 0.00 | 0.00 | 68 | 1011.0 |
| 20260506040002 | 68 | 268 | 0.0 | 3.5 | 0.00 | 0.00 | 0.00 | 68 | 1011.0 |
| 20260506034501 | 68 | 265 | 0.9 | 3.5 | 0.00 | 0.00 | 0.00 | 67 | 1011.0 |
| 20260506033002 | 68 | 255 | 0.0 | 4.3 | 0.00 | 0.00 | 0.00 | 67 | 1010.8 |
| 20260506031607 | 69 | 216 | 1.7 | 3.5 | 0.00 | 0.00 | 0.00 | 66 | 1010.9 |
| 20260506030100 | 69 | 201 | 1.7 | 4.3 | 0.00 | 0.00 | 0.00 | 65 | 1010.9 |
| 20260506024600 | 70 | 184 | 1.7 | 5.2 | 0.00 | 0.00 | 0.00 | 64 | 1011.0 |
| 20260506023101 | 70 | 204 | 0.9 | 2.6 | 0.00 | 0.00 | 0.00 | 62 | 1011.1 |
| 20260506021559 | 71 | 157 | 0.9 | 4.3 | 0.00 | 0.00 | 0.00 | 60 | 1011.0 |
| 20260506020058 | 71 | 234 | 1.7 | 6.1 | 0.00 | 0.00 | 0.00 | 57 | 1011.0 |
| 20260506014559 | 73 | 117 | 0.9 | 1.7 | 0.00 | 0.00 | 0.00 | 54 | 1010.8 |
| 20260506013058 | 73 | 229 | 1.7 | 4.3 | 0.00 | 0.00 | 0.00 | 52 | 1010.7 |
| 20260506011557 | 74 | 252 | 1.7 | 4.3 | 0.00 | 0.00 | 0.00 | 51 | 1010.6 |
| 20260506010057 | 74 | 167 | 0.9 | 4.3 | 0.00 | 0.00 | 0.00 | 50 | 1010.4 |
| 20260506004558 | 75 | 154 | 2.6 | 4.3 | 0.00 | 0.00 | 0.00 | 48 | 1010.3 |
| 20260506003056 | 75 | 242 | 1.7 | 6.1 | 0.00 | 0.00 | 0.00 | 48 | 1010.1 |
| 20260506001616 | 76 | 282 | 1.7 | 10.4 | 0.00 | 0.00 | 0.00 | 48 | 1010.0 |
| 20260506000055 | 76 | 256 | 1.7 | 6.1 | 0.00 | 0.00 | 0.00 | 48 | 1009.8 |
| 20260505234558 | 76 | 248 | 1.7 | 6.1 | 0.00 | 0.00 | 0.00 | 47 | 1009.7 |
| 20260505233057 | 77 | 234 | 1.7 | 7.0 | 0.00 | 0.00 | 0.00 | 48 | 1009.7 |
| 20260505231556 | 77 | 229 | 1.7 | 7.0 | 0.00 | 0.00 | 0.00 | 47 | 1009.4 |
| 20260505230105 | 78 | 269 | 2.6 | 7.8 | 0.00 | 0.00 | 0.00 | 45 | 1009.5 |
| 20260505224553 | 79 | 196 | 3.5 | 10.4 | 0.00 | 0.00 | 0.00 | 42 | 1009.3 |
| 20260505223058 | 80 | 257 | 2.6 | 7.8 | 0.00 | 0.00 | 0.00 | 40 | 1009.2 |
| 20260505221554 | 80 | 247 | 3.5 | 10.4 | 0.00 | 0.00 | 0.00 | 39 | 1009.2 |
| 20260505220051 | 80 | 205 | 3.5 | 14.8 | 0.00 | 0.00 | 0.00 | 40 | 1009.2 |
| 20260505214601 | 80 | 246 | 3.5 | 12.2 | 0.00 | 0.00 | 0.00 | 39 | 1009.1 |
| 20260505213057 | 80 | 254 | 3.5 | 10.4 | 0.00 | 0.00 | 0.00 | 38 | 1009.0 |
| 20260505211548 | 81 | 246 | 3.5 | 13.0 | 0.00 | 0.00 | 0.00 | 38 | 1009.1 |
| 20260505210052 | 81 | 273 | 4.3 | 15.6 | 0.00 | 0.00 | 0.00 | 37 | 1009.2 |
| 20260505204547 | 81 | 242 | 6.1 | 18.2 | 0.00 | 0.00 | 0.00 | 36 | 1009.2 |
| 20260505203050 | 82 | 341 | 3.5 | 12.2 | 0.00 | 0.00 | 0.00 | 37 | 1009.0 |